Weather History for Conroe, TX

Change the Weather History Date:

Monday, November 5, 2012

  Actual Average Record
Temperature  
Mean Temperature 70 °F -  
Max Temperature 82 °F 70 °F 84 °F (2003)
Min Temperature 54 °F 49 °F 34 °F (2011)
Cooling Degree Days 4    
Growing Degree Days 20 (Base 50)    
Moisture  
Dew Point 60 °F    
Average Humidity 82    
Maximum Humidity 100    
Minimum Humidity 49    
Precipitation  
Precipitation 0.01 in - - ()
Sea Level Pressure  
Sea Level Pressure 30.02 in    
Wind  
Wind Speed 2 mph (NW)    
Max Wind Speed 13 mph    
Max Gust Speed -    
Visibility 7 miles    
Events Fog , Thunderstorm    
Averages and records for this station are not official NWS values.
T = Trace of Precipitation, MM = Missing Value Source: NWS Daily Summary

Daily Weather History Graph

Daily Weather History Graph

Search for Another Location

Airport:

Trip Planner

Search our weather history database for the weather conditions in past years. The results will help you decide how hot, cold, wet, or windy it might be!

Date:

Astronomy

Nov. 05, 2012 Rise Set
Actual Time 6:39 AM CST 5:30 PM CST
Civil Twilight 6:14 AM CST 5:55 PM CST
Nautical Twilight 5:45 AM CST 6:24 PM CST
Astronomical Twilight 5:17 AM CST 6:52 PM CST
Moon 11:08 PM CST (11/5) 11:58 AM CST (11/5)
Length of Visible Light 11h 41m
Length of Day
10h 51m
Waning Gibbous, 62% of the Moon is Illuminated
Nov 5
Waning Gibbous
Nov 6
Last Quarter
Nov 13
New
Nov 20
First Quarter
Nov 28
Full

Hourly Weather History & Observations

Time (CST) Temp. Heat Index Dew Point Humidity Pressure Visibility Wind Dir Wind Speed Gust Speed Precip Events Conditions
12:53 AM 57.9 °F - 57.9 °F 100% 30.06 in 6.0 mi Calm Calm - N/A   Clear
1:53 AM 57.9 °F - 57.9 °F 100% 30.05 in 5.0 mi Calm Calm - N/A   Clear
3:35 AM 57.2 °F - 57.2 °F 100% 30.04 in 8.0 mi Calm Calm - N/A   Scattered Clouds
3:39 AM 57.2 °F - 57.2 °F 100% 30.03 in 8.0 mi Calm Calm - N/A   Mostly Cloudy
3:53 AM 57.9 °F - 57.9 °F 100% 30.03 in 6.0 mi Calm Calm - N/A   Overcast
4:21 AM 59.0 °F - 59.0 °F 100% 30.03 in 1.8 mi Calm Calm - N/A   Overcast
4:30 AM 59.0 °F - 59.0 °F 100% 30.04 in 0.2 mi Calm Calm - N/A Fog Fog
4:53 AM 59.0 °F - 59.0 °F 100% 30.03 in 0.2 mi Calm Calm - N/A Fog Fog
5:21 AM 60.8 °F - 60.8 °F 100% 30.04 in 0.2 mi Calm Calm - N/A Fog Fog
5:53 AM 60.1 °F - 60.1 °F 100% 30.04 in 0.2 mi Calm Calm - N/A Fog Fog
6:53 AM 59.0 °F - 59.0 °F 100% 30.05 in 0.2 mi Calm Calm - N/A Fog Fog
7:53 AM 61.0 °F - 61.0 °F 100% 30.06 in 0.2 mi Calm Calm - N/A Fog Fog
8:49 AM 64.4 °F - 64.4 °F 100% 30.07 in 0.8 mi Calm Calm - 0.01 in   Overcast
8:53 AM 64.0 °F - 64.0 °F 100% 30.06 in 2.0 mi Calm Calm - 0.01 in   Mostly Cloudy
9:01 AM 64.4 °F - 64.4 °F 100% 30.07 in 6.0 mi Calm Calm - N/A   Mostly Cloudy
9:10 AM 64.4 °F - 64.4 °F 100% 30.06 in 9.0 mi Calm Calm - N/A   Partly Cloudy
9:53 AM 73.0 °F - 64.0 °F 73% 30.06 in 10.0 mi Variable 3.5 mph - N/A   Clear
10:53 AM 78.1 °F - 59.0 °F 52% 30.04 in 10.0 mi West 6.9 mph - N/A   Clear
11:53 AM 79.0 °F - 63.0 °F 58% 30.02 in 10.0 mi NW 10.4 mph - N/A   Clear
12:53 PM 81.0 °F 82.5 °F 64.0 °F 56% 29.98 in 10.0 mi WNW 6.9 mph - N/A   Partly Cloudy
1:53 PM 81.0 °F 82.2 °F 63.0 °F 54% 29.95 in 10.0 mi West 12.7 mph - N/A   Scattered Clouds
2:21 PM 82.4 °F 83.9 °F 64.4 °F 54% 29.94 in 10.0 mi West 8.1 mph - N/A Thunderstorm Partly Cloudy
2:53 PM 82.9 °F 84.0 °F 63.0 °F 51% 29.93 in 10.0 mi West 11.5 mph - N/A   Mostly Cloudy
3:53 PM 82.0 °F 82.7 °F 61.0 °F 49% 29.92 in 10.0 mi West 10.4 mph - N/A   Clear
4:53 PM 77.0 °F - 63.0 °F 62% 29.94 in 10.0 mi North 5.8 mph - N/A   Partly Cloudy
5:53 PM 73.0 °F - 63.0 °F 71% 29.96 in 10.0 mi North 6.9 mph - N/A   Scattered Clouds
6:53 PM 72.0 °F - 60.1 °F 66% 29.99 in 10.0 mi North 6.9 mph - N/A   Scattered Clouds
7:53 PM 70.0 °F - 59.0 °F 68% 30.01 in 10.0 mi NNW 6.9 mph - N/A   Overcast
8:53 PM 66.9 °F - 55.0 °F 66% 30.03 in 10.0 mi North 8.1 mph - N/A   Scattered Clouds
9:53 PM 64.0 °F - 53.1 °F 67% 30.04 in 10.0 mi North 3.5 mph - N/A   Scattered Clouds
10:53 PM 57.0 °F - 54.0 °F 89% 30.03 in 10.0 mi Calm Calm - N/A   Clear
11:53 PM 54.0 °F - 53.1 °F 97% 30.04 in 10.0 mi NNW 4.6 mph - N/A   Clear